This demonstration page uses our WeatherBlox Daily Observations layout. Learn more.

36.19886, -115.1175

Hourly Observations for November 14, 2018

Temp ( °F °C ) Dew Point ( °F °C ) Humidity (%) Winds ( mph kmh ) Pressure ( in mb ) Visibility ( mi km ) Precip ( " mm )
12:53 am 00:53 Clear 45 7.2 11 -11.7 25 25 NNW 5 7 30.48 1032 10 16.09344 0 0
1:53 am 01:53 Clear 44 6.7 14 -10 30 30 WNW 6 9 30.45 1031 10 16.09344 0 0
2:53 am 02:53 Clear 44 6.7 16 -8.9 32 32 N 3 6 30.45 1031 10 16.09344 0 0
3:53 am 03:53 Clear 46 7.8 11 -11.7 24 24 NNW 6 9 30.45 1031 10 16.09344 0 0
4:53 am 04:53 Clear 45 7.2 15 -9.4 30 30 WNW 3 6 30.45 1031 10 16.09344 0 0
5:53 am 05:53 Clear 45 7.2 15 -9.4 30 30 WNW 5 7 30.48 1032 10 16.09344 0 0
6:53 am 06:53 Sunny 45 7.2 17 -8.3 33 33 Calm 30.48 1032 10 16.09344 0 0
7:53 am 07:53 Sunny 48 8.9 17 -8.3 29 29 NW 3 6 30.48 1032 10 16.09344 0 0
8:53 am 08:53 Sunny 53 11.7 12 -11.1 19 19 Calm 30.48 1032 10 16.09344 0 0
9:53 am 09:53 Sunny 58 14.4 14 -10 18 18 SE 3 6 30.48 1032 10 16.09344 0 0
10:53 am 10:53 Sunny 61 16.1 10 -12.2 13 13 ESE 5 7 30.45 1031 10 16.09344 0 0
11:53 am 11:53 Sunny 62 16.7 9 -12.8 12 12 Calm 30.39 1029 10 16.09344 0 0
12:53 pm 12:53 Sunny 64 17.8 9 -12.8 11 11 Calm 30.36 1028 10 16.09344 0 0
1:53 pm 13:53 Sunny 66 18.9 9 -12.8 10 10 Calm 30.33 1027 10 16.09344 0 0
2:53 pm 14:53 Sunny 66 18.9 8 -13.3 10 10 Calm 30.3 1026 10 16.09344 0 0
3:53 pm 15:53 Sunny 66 18.9 9 -12.8 10 10 Calm 30.3 1026 10 16.09344 0 0
4:53 pm 16:53 Clear 64 17.8 10 -12.2 12 12 Calm 30.27 1025 10 16.09344 0 0
5:53 pm 17:53 Clear 58 14.4 14 -10 18 18 NW 5 7 30.3 1026 10 16.09344 0 0
6:53 pm 18:53 Clear 56 13.3 18 -7.8 22 22 NW 3 6 30.3 1026 10 16.09344 0 0
7:53 pm 19:53 Clear 53 11.7 18 -7.8 25 25 Calm 30.27 1025 10 16.09344 0 0
8:53 pm 20:53 Clear 50 10 16 -8.9 26 26 NW 5 7 30.27 1025 10 16.09344 0 0
9:53 pm 21:53 Clear 50 10 18 -7.8 28 28 NW 3 6 30.27 1025 10 16.09344 0 0
10:53 pm 22:53 Clear 49 9.4 18 -7.8 29 29 NNW 6 9 30.27 1025 10 16.09344 0 0
11:53 pm 23:53 Clear 49 9.4 20 -6.7 32 32 WNW 5 7 30.27 1025 10 16.09344 0 0

Powered by AerisWeather